KB3ICM Weather Reports


time (UTC)temp
C
wind
direction
speed
KPH
gust
KPH
rain 1hr
cm
rain 24hr
cm
rain mn
cm
humidity
%
barometer
mb
20260509222325 15 220 8.0 14.5 0.00 1.17 1.12 85 1001.6
20260509221321 15 258 6.4 16.1 0.00 1.17 1.12 87 878.1
20260509220357 15 235 3.2 9.7 0.00 1.17 1.12 87 1008.0
20260509215338 15 223 6.4 16.1 0.00 1.17 1.12 87
20260509214324 15 205 9.7 12.9 0.00 1.17 1.12 87 742.3
20260509213325 15 242 4.8 11.3 0.00 1.17 1.12 90
20260509212320 14 190 1.6 6.4 0.00 1.17 1.12 94
20260509210323 13 194 4.8 11.3 0.03 1.17 1.12 94 878.0
20260509205339 13 215 0.0 0.0 0.03 1.22 1.12 95 945.4
20260509204340 13 213 0.0 0.0 0.03 1.22 1.12 96 969.6
20260509203325 12 213 0.0 0.0 0.03 1.22 1.12 96 1017.6
20260509202321 12 209 0.0 12.9 0.05 1.22 1.12 96 1011.2
20260509201342 12 190 9.7 17.7 0.05 1.22 1.12 96 922.8
20260509200336 12 211 8.0 16.1 0.10 1.19 1.09 95 1108.6
20260509195314 12 254 11.3 16.1 0.13 1.19 1.09 95 1035.4
20260509194342 13 236 6.4 12.9 0.18 1.19 1.09 95 902.8
20260509193338 13 224 3.2 11.3 0.20 1.19 1.09 96 966.9
20260509192322 12 223 0.0 14.5 0.25 1.17 1.07 95 907.9
20260509191324 12 250 9.7 29.0 0.30 1.17 1.07 96 1078.4
20260509190344 12 256 4.8 16.1 0.25 1.09 0.99 96
20260509185345 11 245 4.8 19.3 0.25 1.07 0.97 95 879.0
20260509184324 11 229 12.9 32.2 0.23 1.02 0.91 95 976.1
20260509183320 11 202 14.5 30.6 0.23 0.99 0.89 94 1083.0
20260509182337 11 200 9.7 27.4 0.15 0.91 0.81 95
20260509181338 11 202 12.9 25.7 0.13 0.86 0.76 95 1068.8
20260509180323 11 205 19.3 25.7 0.15 0.84 0.74 94 1082.0
20260509175324 12 185 12.9 27.4 0.15 0.81 0.71 94
20260509174325 12 202 11.3 19.3 0.18 0.79 0.69 95 -108.8
20260509173322 12 214 4.8 25.7 0.20 0.76 0.66 96 803.7
20260509172321 12 197 12.9 22.5 0.25 0.76 0.66 95
20260509171320 11 184 11.3 30.6 0.25 0.74 0.64 95
20260509170332 11 211 16.1 30.6 0.25 0.69 0.58 95 899.7
20260509165326 11 202 16.1 27.4 0.25 0.66 0.56 96
20260509164326 11 191 11.3 24.1 0.23 0.61 0.51 95 1050.6
20260509163324 11 182 14.5 24.1 0.20 0.56 0.46 95 943.7
20260509162322 12 195 6.4 16.1 0.18 0.51 0.41 95 985.5
20260509161322 12 158 11.3 19.3 0.15 0.48 0.38 94 1012.3
20260509160324 12 209 6.4 16.1 0.13 0.43 0.33 95 1009.7
20260509155323 12 252 4.8 17.7 0.13 0.41 0.30 95 1006.4
20260509154322 12 190 4.8 16.1 0.10 0.38 0.28 94 847.7
20260509153322 11 202 11.3 19.3 0.10 0.36 0.25 94 878.8
20260509152321 12 161 0.0 6.4 0.08 0.33 0.23 95 888.9
20260509151339 12 59 0.0 0.0 0.08 0.33 0.23 97
20260509150343 12 59 0.0 0.0 0.08 0.30 0.20 97
20260509145325 12 58 0.0 0.0 0.05 0.28 0.18 97 871.6
20260509144324 11 59 0.0 0.0 0.08 0.28 0.18 97
20260509143323 11 44 0.0 0.0 0.05 0.25 0.15 97 980.3
20260509142322 11 44 0.0 0.0 0.08 0.25 0.15 98
20260509141339 11 43 0.0 0.0 0.08 0.25 0.15 97
20260509140337 11 44 0.0 0.0 0.08 0.23 0.13 97
20260509135322 11 43 0.0 0.0 0.08 0.23 0.13 98 893.1
20260509134343 11 44 0.0 0.0 0.05 0.20 0.10 98 999.7
20260509133321 11 44 0.0 0.0 0.05 0.20 0.10 98 1010.3
20260509132345 11 269 0.0 0.0 0.05 0.18 0.08 98 1006.2
20260509131343 10 269 0.0 0.0 0.05 0.18 0.08 98 1010.1
20260509130340 10 268 0.0 0.0 0.03 0.15 0.05 98 1010.2
20260509125338 10 269 0.0 0.0 0.03 0.15 0.05 98 1010.1
20260509124336 10 269 0.0 0.0 0.03 0.15 0.05 98 1011.1
20260509123329 10 269 0.0 0.0 0.03 0.15 0.05 98 1008.6
20260509122332 10 269 0.0 0.0 0.00 0.13 0.03 98 1010.2
20260509121331 10 269 0.0 0.0 0.00 0.13 0.03 98 1010.6
20260509120330 10 269 0.0 0.0 0.00 0.13 0.03 98 1009.5
20260509115348 10 269 0.0 0.0 0.00 0.13 0.03 98 1009.6
20260509114322 10 269 0.0 1.6 0.00 0.13 0.03 98 1009.4
20260509113321 9 215 0.0 0.0 0.03 0.13 0.03 98 1010.9
20260509112339 9 217 0.0 0.0 0.03 0.13 0.03 98 1010.3
20260509111321 9 217 0.0 0.0 0.03 0.13 0.03 98 1011.0
20260509110347 9 217 0.0 0.0 0.03 0.13 0.03 98 1009.8
20260509105324 9 217 0.0 0.0 0.03 0.13 0.03 98 1012.1
20260509104343 9 217 0.0 0.0 0.03 0.13 0.03 98 1031.9
20260509103346 9 217 0.0 0.0 0.00 0.10 0.00 98 1011.1
20260509102324 9 217 0.0 0.0 0.00 0.10 0.00 98 1008.1
20260509101324 9 217 0.0 0.0 0.00 0.10 0.00 98 1011.1
20260509100343 9 217 0.0 0.0 0.00 0.10 0.00 98 1011.8
20260509095320 9 217 0.0 0.0 0.00 0.10 0.00 98 1010.5
20260509094343 9 217 0.0 0.0 0.00 0.10 0.00 98 912.0
20260509093345 9 217 0.0 0.0 0.00 0.10 0.00 98 911.9
20260509092324 9 217 0.0 0.0 0.00 0.10 0.00 98 1010.8
20260509091323 9 217 0.0 0.0 0.00 0.10 0.00 98 1105.4
20260509090322 9 217 0.0 0.0 0.00 0.10 0.00 98 1010.1
20260509085340 8 217 0.0 0.0 0.00 0.10 0.00 98 1011.5
20260509084358 8 217 0.0 0.0 0.00 0.10 0.00 98 1010.0
20260509083320 9 217 0.0 0.0 0.00 0.10 0.00 98 1010.2
20260509082322 9 217 0.0 0.0 0.00 0.10 0.00 98
20260509081325 9 217 0.0 0.0 0.00 0.10 0.00 98 879.2
20260509080324 9 217 0.0 0.0 0.00 0.10 0.00 98 1055.2
20260509075321 9 217 0.0 0.0 0.00 0.10 0.00 98 989.4
20260509074321 9 217 0.0 0.0 0.00 0.10 0.00 98 1014.1
20260509073339 9 217 0.0 0.0 0.00 0.10 0.00 98 1011.0
20260509072321 9 217 0.0 0.0 0.00 0.10 0.00 98 1010.6
20260509071324 9 217 0.0 0.0 0.00 0.10 0.00 98 1011.6
20260509070322 9 217 0.0 0.0 0.00 0.10 0.00 98 1010.8
20260509065347 9 217 0.0 0.0 0.00 0.13 0.00 98 1011.2
20260509064344 9 217 0.0 0.0 0.00 0.13 0.00 98 1011.1
20260509063321 9 217 0.0 0.0 0.00 0.13 0.00 98 1010.9
20260509062339 9 217 0.0 0.0 0.00 0.13 0.00 98 1010.9
20260509061323 9 217 0.0 0.0 0.00 0.13 0.00 98 1011.1
20260509060344 9 217 0.0 0.0 0.00 0.13 0.00 98 1011.2
20260509055322 9 217 0.0 0.0 0.00 0.13 0.00 98 1011.5
20260509054321 9 217 0.0 0.0 0.00 0.13 0.00 98 1011.6
20260509053325 9 217 0.0 0.0 0.00 0.13 0.00 97 1012.0
20260509052323 9 217 0.0 0.0 0.00 0.13 0.00 97 1011.8
20260509051322 9 217 0.0 0.0 0.00 0.13 0.00 97 1011.7
20260509050400 9 217 0.0 0.0 0.00 0.13 0.00 97 1012.8
20260509045322 9 217 0.0 0.0 0.00 0.13 0.00 97 1011.8
20260509044325 8 217 0.0 0.0 0.00 0.13 0.00 97 1011.5
20260509043323 8 217 0.0 0.0 0.00 0.13 0.00 97 1012.4
20260509042321 8 217 0.0 0.0 0.00 0.13 0.00 98 1011.1
20260509041340 8 217 0.0 0.0 0.03 0.13 0.00 97 1012.7
20260509040339 9 217 0.0 0.0 0.03 0.13 0.00 97 1012.8
20260509035343 9 217 0.0 0.0 0.03 0.13 0.13 97
20260509034325 9 217 0.0 0.0 0.03 0.13 0.13 97 1011.7
20260509033345 9 216 0.0 0.0 0.03 0.13 0.13 97 1012.2
20260509032342 9 216 0.0 0.0 0.03 0.13 0.13 97 1011.3
20260509031345 8 217 0.0 0.0 0.00 0.10 0.10 97 883.3
20260509030323 9 217 0.0 0.0 0.00 0.10 0.10 97 1012.5
20260509025321 8 217 0.0 0.0 0.00 0.13 0.10 97 1011.7
20260509024339 8 216 0.0 0.0 0.00 0.13 0.10 97 1013.8
20260509023337 8 217 0.0 0.0 0.00 0.13 0.10 97 1012.0
20260509022326 8 217 0.0 0.0 0.00 0.13 0.10 97 1012.3
20260509021325 8 217 0.0 0.0 0.00 0.13 0.10 96 1011.7
20260509020323 8 217 0.0 0.0 0.00 0.13 0.10 96 1011.2
20260509015322 9 217 0.0 0.0 0.00 0.13 0.10 96 1013.0
20260509014321 9 217 0.0 0.0 0.00 0.13 0.10 96 1011.3
20260509013321 10 217 0.0 0.0 0.00 0.13 0.10 95 1012.2
20260509012400 10 217 0.0 0.0 0.00 0.13 0.10 95 1011.0
20260509011321 10 217 0.0 0.0 0.00 0.13 0.10 95 1012.3
20260509010325 10 217 0.0 0.0 0.00 0.13 0.10 95 1011.1
20260509005325 11 217 0.0 0.0 0.00 0.13 0.10 95 1013.1
20260509004324 11 217 0.0 0.0 0.00 0.13 0.10 95 1011.1
20260509003323 11 217 0.0 0.0 0.00 0.13 0.10 94 1010.7
20260509002321 11 217 0.0 0.0 0.00 0.13 0.10 94 1026.5
20260509001320 10 217 0.0 0.0 0.03 0.13 0.10 93 1011.3
20260509000344 11 217 0.0 0.0 0.03 0.13 0.10 93 1032.9
20260508234347 11 217 0.0 0.0 0.03 0.13 0.10 92 1011.0
20260508233323 11 217 0.0 0.0 0.03 0.13 0.10 92 1032.5
20260508232344 11 217 0.0 0.0 0.03 0.13 0.10 92 1010.8
20260508231320 11 217 0.0 0.0 0.00 0.10 0.08 91 1011.3
20260508230340 11 217 0.0 1.6 0.00 0.10 0.08 90
20260508225337 11 217 0.0 0.0 0.00 0.10 0.08 89 1012.0
20260508224345 12 217 0.0 4.8 0.00 0.10 0.08 83 1012.1
20260508223323 13 217 0.0 8.0 0.00 0.10 0.08 81 1011.2